User: anonymous   Login
Location: Unspecified
(0.0000°N, 0.0000°E)
Time: 03:39:42
(UTC+00:00)
Language:

OBJECT V - Orbit

View from above orbital plane
View from above orbital plane
View from above satellite
View from above satellite

Ground track
Ground track

The orbit data is extracted from the following two-line orbital elements,

1 42844U 17042V   17265.58493181 -.00000128 +00000-0 -73969-5 0  9998
2 42844 097.6045 172.8234 0014532 011.2408 348.9133 14.91378499010460
Epoch (UTC): 22 September 2017 14:02:18
Eccentricity: 0.0014532
inclination: 97.6045°
perigee height: 583 km
apogee height: 604 km
right ascension of ascending node: 172.8234°
argument of perigee: 11.2408°
revolutions per day: 14.91378499
mean anomaly at epoch: 348.9133°
orbit number at epoch: 1046

The dashed part of the orbit path shows where the satellite is in the earth's shadow,  

DLR